Weather History for Plymouth, NH

Change the Weather History Date:

Saturday, January 5, 2013

  Actual Average (KLCI) Record (KLCI)
Temperature  
Mean Temperature 22 °F -  
Max Temperature 33 °F 31 °F 48 °F (1993)
Min Temperature 11 °F 15 °F -8 °F (1989)
Degree Days  
Heating Degree Days 43    
Moisture  
Dew Point 16 °F    
Average Humidity 66    
Maximum Humidity 92    
Minimum Humidity 47    
Precipitation  
Precipitation 0.00 in - - ()
Sea Level Pressure  
Sea Level Pressure 30.05 in    
Wind  
Wind Speed 9 mph (WNW)    
Max Wind Speed 29 mph    
Max Gust Speed 38 mph    
Visibility 9 miles    
Events Snow    
Averages and records for this station are not official NWS values.
T = Trace of Precipitation, MM = Missing Value Source: NWS Daily Summary

Daily Weather History Graph

Daily Weather History Graph

Search for Another Location

Airport:

Trip Planner

Search our weather history database for the weather conditions in past years. The results will help you decide how hot, cold, wet, or windy it might be!

Date:

Astronomy

Jan. 05, 2013 Rise Set
Actual Time 7:20 AM EST 4:24 PM EST
Civil Twilight 6:48 AM EST 4:57 PM EST
Nautical Twilight 6:12 AM EST 5:33 PM EST
Astronomical Twilight 5:37 AM EST 6:07 PM EST
Moon 12:17 AM EST (1/5) 11:18 AM EST (1/5)
Length of Visible Light 10h 08m
Length of Day
9h 03m
Last Quarter, 44% of the Moon is Illuminated
Jan 5
Last Quarter
Jan 11
New
Jan 18
First Quarter
Jan 26
Full
Feb 3
Last Quarter

Hourly Weather History & Observations

Time (EST) Temp. Windchill Dew Point Humidity Pressure Visibility Wind Dir Wind Speed Gust Speed Precip Events Conditions
12:15 AM 32.7 °F 24.5 °F 25.2 °F 74% 29.74 in 10.0 mi West 10.4 mph 17.3 mph N/A Snow Light Snow
12:35 AM 32.9 °F 24.1 °F 25.0 °F 73% 29.74 in 10.0 mi West 11.5 mph 20.7 mph N/A   Unknown
12:55 AM 32.9 °F 24.1 °F 24.8 °F 72% 29.75 in 7.0 mi West 11.5 mph 23.0 mph N/A Snow Light Snow
1:15 AM 32.4 °F 24.6 °F 25.5 °F 76% 29.76 in 10.0 mi WNW 9.2 mph - N/A Snow Light Snow
1:35 AM 32.0 °F 26.4 °F 25.7 °F 78% 29.76 in 10.0 mi West 5.8 mph - N/A   Unknown
1:55 AM 32.2 °F 25.0 °F 24.6 °F 74% 29.75 in 10.0 mi WNW 8.1 mph - N/A Snow Light Snow
2:15 AM 32.2 °F 28.9 °F 24.3 °F 73% 29.76 in 10.0 mi NNW 3.5 mph - N/A   Unknown
2:35 AM 32.5 °F 25.5 °F 23.0 °F 68% 29.77 in 10.0 mi WNW 8.1 mph - N/A   Unknown
2:55 AM 33.3 °F 25.7 °F 21.9 °F 63% 29.78 in 10.0 mi West 9.2 mph - N/A   Unknown
3:15 AM 33.1 °F 26.9 °F 22.5 °F 65% 29.79 in 10.0 mi West 6.9 mph - N/A   Unknown
3:35 AM 33.1 °F 24.9 °F 22.8 °F 66% 29.79 in 10.0 mi West 10.4 mph 19.6 mph N/A   Unknown
3:55 AM 32.5 °F 24.2 °F 23.5 °F 69% 29.80 in 10.0 mi West 10.4 mph 19.6 mph N/A   Unknown
4:15 AM 32.5 °F 25.5 °F 23.9 °F 70% 29.80 in 10.0 mi West 8.1 mph 18.4 mph N/A   Unknown
4:35 AM 32.4 °F 25.3 °F 24.3 °F 72% 29.81 in 10.0 mi West 8.1 mph - N/A Snow Light Snow
4:55 AM 32.0 °F 25.6 °F 25.9 °F 78% 29.82 in 5.0 mi WNW 6.9 mph - N/A Snow Light Snow
5:35 AM 32.0 °F 23.6 °F 26.2 °F 79% 29.86 in 7.0 mi West 10.4 mph 20.7 mph N/A Snow Light Snow
5:55 AM 32.5 °F 25.5 °F 24.6 °F 73% 29.87 in 10.0 mi West 8.1 mph 16.1 mph N/A   Unknown
6:15 AM 32.9 °F 21.6 °F 24.8 °F 72% 29.90 in 7.0 mi WNW 18.4 mph 27.6 mph N/A Snow Light Snow
6:55 AM 31.6 °F 22.6 °F 22.3 °F 68% 29.93 in 10.0 mi WNW 11.5 mph 29.9 mph N/A   Unknown
7:35 AM 32.0 °F 21.2 °F 17.8 °F 56% 29.95 in 3.0 mi WNW 16.1 mph 31.1 mph N/A   Haze
7:55 AM 32.0 °F 21.2 °F 16.3 °F 52% 29.98 in 10.0 mi WNW 16.1 mph 21.9 mph N/A   Unknown
8:15 AM 31.8 °F 17.6 °F 14.9 °F 50% 30.00 in 5.0 mi WNW 28.8 mph 36.8 mph N/A   Haze
8:35 AM 31.1 °F 19.3 °F 13.8 °F 49% 30.01 in 4.0 mi WNW 18.4 mph 35.7 mph N/A   Haze
8:55 AM 31.1 °F 18.3 °F 13.3 °F 48% 30.02 in 5.0 mi WNW 21.9 mph 38.0 mph N/A   Haze
9:15 AM 31.1 °F 19.3 °F 13.1 °F 47% 30.03 in 7.0 mi West 18.4 mph 31.1 mph N/A   Unknown
9:35 AM 31.1 °F 18.9 °F 14.5 °F 50% 30.05 in 7.0 mi WNW 19.6 mph 31.1 mph N/A   Unknown
9:55 AM 31.1 °F 18.9 °F 13.8 °F 49% 30.08 in 10.0 mi WNW 19.6 mph 29.9 mph N/A   Unknown
10:15 AM 31.1 °F 20.5 °F 13.3 °F 48% 30.09 in 10.0 mi West 15.0 mph 24.2 mph N/A   Unknown
10:35 AM 30.9 °F 20.2 °F 14.7 °F 51% 30.10 in 10.0 mi WNW 15.0 mph 26.5 mph N/A   Unknown
10:55 AM 30.0 °F 18.3 °F 14.5 °F 53% 30.11 in 7.0 mi WNW 17.3 mph 34.5 mph N/A   Unknown
11:15 AM 30.0 °F 17.2 °F 14.4 °F 52% 30.09 in 10.0 mi WNW 20.7 mph 32.2 mph N/A   Unknown
11:55 AM 30.2 °F 20.2 °F 16.7 °F 57% 30.12 in 10.0 mi NW 12.7 mph 21.9 mph N/A   Unknown
12:35 PM 28.8 °F 19.5 °F 15.4 °F 58% 30.14 in 10.0 mi NNW 10.4 mph 19.6 mph N/A   Unknown
12:55 PM 29.1 °F 18.9 °F 13.5 °F 52% 30.14 in 10.0 mi NW 12.7 mph 21.9 mph N/A   Unknown
1:15 PM 30.7 °F 24.1 °F 14.4 °F 51% 30.15 in 10.0 mi West 6.9 mph 20.7 mph N/A   Unknown
1:35 PM 29.7 °F 19.6 °F 13.8 °F 52% 30.16 in 10.0 mi NW 12.7 mph 17.3 mph N/A   Unknown
1:55 PM 30.2 °F 20.8 °F 13.6 °F 50% 30.16 in 10.0 mi WNW 11.5 mph 16.1 mph N/A   Unknown
2:15 PM 30.2 °F 21.3 °F 13.3 °F 49% 30.17 in 10.0 mi West 10.4 mph 19.6 mph N/A   Unknown
2:35 PM 30.0 °F 21.7 °F 13.3 °F 50% 30.16 in 10.0 mi WNW 9.2 mph 18.4 mph N/A   Unknown
2:55 PM 29.7 °F 18.2 °F 13.3 °F 51% 30.16 in 10.0 mi NW 16.1 mph - N/A   Unknown
3:15 PM 29.3 °F 21.5 °F 13.3 °F 51% 30.17 in 10.0 mi West 8.1 mph - N/A   Unknown
3:35 PM 28.8 °F 20.2 °F 12.9 °F 52% 30.16 in 10.0 mi WNW 9.2 mph - N/A   Unknown
3:55 PM 28.4 °F - 12.9 °F 52% 30.16 in 10.0 mi Calm Calm - N/A   Unknown
4:15 PM 27.5 °F 19.3 °F 12.7 °F 54% 30.16 in 10.0 mi NW 8.1 mph - N/A   Unknown
4:35 PM 27.3 °F - 12.2 °F 53% 30.18 in 10.0 mi Calm Calm - N/A   Unknown
4:55 PM 26.1 °F - 12.2 °F 56% 30.18 in 10.0 mi Calm Calm - N/A   Unknown
5:15 PM 25.5 °F - 12.0 °F 57% 30.19 in 10.0 mi Calm Calm - N/A   Unknown
5:35 PM 24.1 °F - 11.5 °F 59% 30.20 in 10.0 mi Calm Calm - N/A   Unknown
5:55 PM 23.0 °F - 11.7 °F 62% 30.21 in 10.0 mi Calm Calm - N/A   Unknown
6:15 PM 22.5 °F - 12.4 °F 65% 30.20 in 10.0 mi Calm Calm - N/A   Unknown
6:35 PM 22.5 °F - 12.9 °F 67% 30.21 in 10.0 mi Calm Calm - N/A   Unknown
6:55 PM 19.4 °F - 12.0 °F 73% 30.22 in 10.0 mi Calm Calm - N/A   Unknown
7:15 PM 17.4 °F - 11.8 °F 79% 30.22 in 10.0 mi Calm Calm - N/A   Unknown
7:35 PM 16.7 °F - 12.0 °F 82% 30.21 in 10.0 mi Calm Calm - N/A   Unknown
7:55 PM 17.2 °F - 12.2 °F 81% 30.22 in 10.0 mi Calm Calm - N/A   Unknown
8:15 PM 14.5 °F - 11.1 °F 86% 30.22 in 10.0 mi Calm Calm - N/A   Unknown
8:55 PM 13.6 °F - 10.9 °F 89% 30.23 in 10.0 mi Calm Calm - N/A   Unknown
9:15 PM 12.2 °F - 9.7 °F 90% 30.22 in 10.0 mi Calm Calm - N/A   Unknown
9:35 PM 11.7 °F - 9.7 °F 92% 30.23 in 10.0 mi Calm Calm - N/A   Unknown
9:55 PM 11.8 °F - 10.0 °F 92% 30.22 in 10.0 mi Calm Calm - N/A   Unknown
10:15 PM 11.7 °F - 9.5 °F 91% 30.23 in 10.0 mi Calm Calm - N/A   Unknown
10:35 PM 11.5 °F - 9.7 °F 92% 30.22 in 10.0 mi Calm Calm - N/A   Unknown
10:55 PM 11.3 °F - 9.5 °F 92% 30.21 in 10.0 mi Calm Calm - N/A   Unknown
11:15 PM 11.3 °F - 8.8 °F 90% 30.21 in 10.0 mi Calm Calm - N/A   Unknown
11:35 PM 11.3 °F - 9.0 °F 90% 30.20 in 10.0 mi Calm Calm - N/A   Unknown
11:55 PM 11.3 °F - 9.3 °F 92% 30.20 in 10.0 mi Calm Calm - N/A   Unknown